Theta_e
333 334 335 336 336 337 337 337 337 338 339 340 341 343 344 345 345 345 346 346 347 347 348 349 350 350 349 349 350 350 350 349 349 349 348 349 351 349 347 349 350 349 350 351 352 352 354 355 355 356 356 357 358 359 360 361 360 360 359 358 358 357 355
332 334 335 336 336 337 337 338 338 338 339 340 341 343 345 345 346 345 346 347 346 347 348 349 350 350 349 349 350 350 349 349 349 351 350 349 351 352 350 349 351 351 350 352 353 353 354 354 355 356 355 357 358 358 359 360 360 359 358 357 356 356 355
332 334 335 336 336 337 337 338 338 338 339 340 341 342 344 345 347 346 347 347 346 347 348 349 350 349 350 349 349 349 349 349 349 349 350 349 349 351 352 351 351 352 352 353 353 354 355 354 354 355 355 356 357 358 359 359 359 359 357 357 356 355 354
332 334 335 336 337 338 338 338 338 338 340 341 341 342 344 346 347 348 348 348 347 347 347 348 350 350 349 349 348 348 349 349 349 349 350 351 350 350 352 352 352 352 353 352 355 355 356 355 354 354 359 355 356 358 359 359 359 359 357 356 356 355 355
332 334 336 336 336 337 337 338 338 338 339 341 342 343 345 347 348 349 349 350 349 348 349 349 350 351 351 350 350 350 349 349 350 350 350 351 352 351 352 352 353 352 353 354 354 356 355 355 354 354 355 356 356 357 358 359 358 358 358 356 355 356 354
331 333 335 336 336 337 338 338 339 339 339 340 342 342 344 347 348 349 350 350 350 350 350 350 350 351 350 350 350 350 350 350 351 351 351 351 351 351 351 353 354 354 353 353 355 355 356 356 355 355 354 356 356 357 357 358 359 358 357 356 355 355 355
331 333 335 336 336 337 337 338 339 340 340 341 343 344 345 347 348 350 351 351 351 350 350 350 351 351 351 352 351 351 350 350 351 351 351 351 351 351 351 352 354 355 354 354 354 355 355 356 356 355 355 355 356 356 357 357 358 358 357 356 355 354 355
331 332 334 336 337 337 338 338 339 340 341 341 342 343 343 345 348 350 351 352 352 352 351 351 351 351 352 352 352 351 350 350 351 351 352 351 351 351 351 351 353 355 355 354 354 356 355 355 356 356 356 355 355 356 357 357 357 358 357 356 355 355 355
331 333 334 335 336 337 338 339 339 340 340 340 342 343 343 344 346 348 351 352 353 352 352 353 352 353 353 353 352 352 352 351 351 351 351 351 351 351 351 351 351 354 355 355 355 356 356 356 355 356 356 355 355 355 356 357 357 358 357 356 355 355 355
330 331 333 335 336 337 338 339 339 339 339 340 341 342 343 343 345 347 350 352 353 353 353 354 354 354 353 353 353 353 352 352 351 351 351 350 351 350 351 352 352 352 354 356 356 356 357 357 356 355 354 355 355 355 355 356 357 357 357 357 356 355 355
329 330 331 333 335 336 337 338 338 338 339 339 341 342 343 343 344 345 347 351 353 354 355 355 355 355 354 353 353 353 353 352 352 351 351 350 351 351 351 352 352 352 352 354 356 357 356 356 357 356 355 354 354 355 355 355 356 356 357 358 357 356 356
329 329 330 332 333 334 335 336 337 338 338 339 341 342 342 343 344 344 347 349 352 354 355 355 356 356 355 354 353 353 352 352 352 351 351 351 351 351 352 352 352 351 352 352 353 356 357 356 355 356 355 355 354 355 355 356 356 356 356 357 358 357 357
328 329 329 330 332 333 334 334 335 336 338 339 340 342 343 343 344 344 346 348 352 354 355 356 356 356 355 355 354 353 353 353 352 352 352 352 351 352 352 352 352 352 351 352 352 353 355 356 355 355 355 356 355 354 355 356 356 356 357 357 358 358 357
335 328 329 329 330 331 331 333 334 335 336 338 339 341 343 344 344 345 346 348 351 354 355 356 356 355 355 355 354 353 353 353 354 353 353 352 352 352 352 352 352 352 352 352 351 351 352 355 356 355 354 355 355 355 355 355 355 356 357 357 357 358 358
327 328 328 328 329 329 330 332 334 335 336 337 338 340 343 345 345 346 347 349 351 353 355 357 356 356 355 355 354 354 354 355 354 354 354 353 352 351 351 352 352 352 352 352 352 352 352 353 355 355 354 353 354 355 356 354 354 356 357 356 356 357 357
326 327 328 328 328 329 330 331 334 335 336 337 338 339 343 345 346 347 348 349 351 353 355 357 357 356 356 355 354 355 355 355 355 355 354 353 352 351 351 351 351 352 351 352 352 351 352 352 353 354 355 354 353 353 355 355 356 348 337 342 356 356 357
324 326 327 328 328 329 329 331 333 335 336 337 338 339 342 345 347 348 349 350 351 353 356 357 357 357 356 356 356 356 356 355 355 355 354 353 352 352 351 351 351 351 351 351 352 351 351 352 351 352 354 354 353 352 352 354 355 338 332 333 338 353 356
322 324 326 327 328 328 329 331 332 335 337 338 339 340 343 345 347 348 349 350 350 352 356 357 358 357 357 357 358 357 356 356 355 355 354 354 353 352 352 351 350 349 349 350 350 352 352 351 351 352 353 354 354 353 353 353 340 334 331 331 332 338 355
324 326 326 327 328 330 330 332 334 336 338 340 341 341 344 347 348 348 350 350 351 352 353 356 358 358 358 358 358 358 357 357 355 355 354 354 354 353 352 351 350 349 348 348 350 351 351 351 351 351 352 353 353 353 354 353 338 331 329 330 330 331 342
330 331 330 329 331 331 332 334 335 337 339 341 343 344 346 349 350 351 352 352 352 352 352 353 356 357 358 359 359 358 358 357 356 355 354 354 354 353 352 351 350 350 350 349 349 349 351 351 351 351 351 351 352 353 354 354 340 329 327 327 327 329 334
331 330 328 329 331 334 335 336 337 337 337 341 343 344 346 348 350 351 351 352 352 352 352 352 353 355 357 358 359 359 358 357 356 355 354 354 353 353 352 352 351 350 350 350 349 348 349 350 350 351 351 351 351 352 353 354 337 327 324 324 324 327 329
334 336 334 334 333 333 336 341 340 338 338 342 346 346 346 347 350 351 352 353 353 353 352 352 352 353 355 357 358 358 358 357 356 355 354 354 353 352 352 352 351 350 350 350 350 350 350 351 352 351 351 351 351 351 351 354 333 326 323 322 323 325 338
335 334 337 339 339 339 340 341 342 344 347 344 345 345 347 348 349 350 351 351 352 352 353 352 352 352 353 355 357 358 358 358 357 355 354 354 353 352 351 351 352 352 352 350 349 349 349 349 351 353 352 352 352 350 351 353 337 324 321 320 321 323 343
342 343 343 344 346 347 347 345 345 347 344 343 343 340 343 344 347 348 348 349 350 351 351 351 351 352 352 354 356 357 358 358 358 356 355 354 353 352 352 352 353 352 353 350 349 348 349 350 350 352 353 353 352 352 351 351 341 321 319 319 319 327 345
341 345 346 345 345 345 347 350 352 354 354 354 353 353 346 341 341 342 344 345 346 348 349 349 350 351 352 353 355 356 358 359 358 357 356 355 355 354 353 352 352 353 353 352 351 350 350 350 350 350 352 353 354 346 350 352 343 318 318 317 317 327 346
340 343 346 348 349 348 348 350 351 352 351 351 351 353 355 354 345 346 341 341 341 341 343 347 349 350 351 354 355 356 357 359 359 358 357 356 356 356 355 355 354 353 353 352 352 350 350 350 350 349 350 351 353 354 353 353 353 331 317 316 316 319 344
342 342 343 346 348 353 348 349 349 350 351 351 353 354 353 355 356 353 353 347 339 339 341 343 344 347 349 354 356 356 357 358 359 358 358 358 357 357 357 356 355 354 353 353 353 351 350 349 349 349 349 350 351 352 353 355 354 337 314 315 315 316 326
341 341 342 346 353 351 347 349 350 350 350 351 353 356 357 354 355 354 354 350 348 346 344 341 341 345 348 353 355 356 357 358 359 360 359 359 358 357 357 357 357 356 355 355 354 352 351 350 349 349 349 350 351 351 352 354 346 351 316 316 314 315 316
338 339 340 342 344 349 348 347 348 348 348 350 352 354 357 357 355 354 351 351 353 359 359 357 344 344 347 351 355 356 357 358 359 359 360 359 359 358 357 358 358 357 356 355 355 354 352 352 351 350 349 349 350 352 353 353 351 338 333 315 313 313 313
340 340 341 344 346 346 348 347 347 347 348 349 351 353 353 353 353 355 353 351 356 359 359 358 349 344 346 349 353 356 357 358 360 360 361 360 359 358 358 358 358 358 358 357 356 355 354 353 353 351 350 349 349 352 353 354 355 339 328 325 312 312 312
338 339 341 343 344 346 346 345 345 345 345 347 348 350 351 351 351 353 351 352 358 359 358 359 350 345 346 347 350 354 357 358 360 361 361 361 360 358 358 358 359 358 358 357 357 356 355 354 353 352 351 350 349 349 352 356 356 356 335 321 315 312 311
337 339 341 342 344 345 344 345 344 344 344 345 347 348 350 349 349 348 349 353 357 358 358 360 352 348 347 347 349 353 356 358 360 360 361 361 362 361 360 360 359 358 358 357 357 356 355 354 353 352 352 351 351 349 351 354 357 352 334 329 322 316 312
334 337 338 339 342 345 343 343 343 343 344 343 346 346 348 347 348 348 351 353 355 357 357 359 356 353 348 349 351 353 355 357 359 360 361 362 362 362 362 361 361 359 356 358 358 356 355 355 353 352 351 351 351 350 350 352 345 338 333 329 328 329 326
331 335 338 339 341 344 342 342 341 342 342 341 343 345 345 346 346 347 350 352 354 355 357 358 359 354 351 352 354 354 356 357 367 362 360 360 361 361 361 362 362 360 357 357 357 356 355 355 354 352 353 353 353 352 351 341 335 336 335 332 330 328 326
330 333 336 338 340 343 340 340 341 339 340 341 342 342 342 342 343 345 348 350 351 352 355 358 361 358 353 354 355 355 357 359 361 356 345 330 319 311 309 315 320 334 346 330 329 355 360 357 356 356 357 357 355 354 347 335 334 330 311 316 312 328 329
330 332 335 338 340 339 340 342 339 337 337 337 339 339 339 339 341 342 347 348 349 350 352 354 353 351 351 351 353 356 358 358 352 345 337 328 319 317 315 309 301 303 318 326 319 313 309 325 355 358 344 332 320 328 345 343 336 304 297 296 296 299 304
329 331 333 337 337 337 337 337 342 338 336 336 338 338 338 338 339 341 344 346 346 348 349 349 348 348 347 348 349 351 357 350 343 339 334 332 330 328 326 325 319 302 300 306 307 303 304 311 319 321 325 335 321 311 307 306 300 297 296 295 295 295 294
331 330 333 336 337 337 337 336 336 336 336 334 336 336 336 336 338 339 341 343 345 347 348 347 346 345 346 347 348 349 349 345 342 338 335 332 331 331 331 329 326 323 308 299 302 302 299 299 302 304 306 309 314 314 312 303 297 296 296 296 296 296 295
Wind_Speed
21 20 20 19 19 19 21 22 21 18 19 19 18 20 21 19 19 18 18 19 21 20 19 18 19 17 18 17 16 15 14 13 11 12 11 11 10 11 11 10 10 10 9 9 9 10 9 8 9 9 8 9 9 8 8 7 7 7 7 6 6 6 7
18 19 20 19 19 20 20 20 20 18 17 18 18 20 19 20 19 19 19 20 21 21 20 19 18 18 18 17 15 15 15 14 13 11 11 10 8 9 10 10 11 10 10 9 8 8 7 8 9 9 9 9 9 8 8 8 8 7 7 6 7 6 6
19 19 19 18 18 17 19 18 19 19 19 18 18 18 19 20 20 22 20 20 21 20 18 19 19 19 18 17 16 16 15 14 13 13 13 12 12 11 10 9 9 9 10 8 8 8 8 9 9 9 9 9 9 8 8 8 8 8 7 7 7 7 7
20 20 20 21 21 20 20 20 22 20 19 20 20 21 21 21 20 19 19 20 21 19 20 19 18 18 17 16 16 15 15 15 14 14 14 13 13 11 10 9 9 8 7 9 9 9 8 9 10 9 9 8 8 8 8 9 8 8 9 8 7 7 8
22 21 20 18 18 17 17 18 19 20 20 21 21 20 20 20 19 18 17 19 21 22 22 21 17 16 14 15 13 13 15 15 14 13 12 11 11 10 11 11 10 11 11 9 8 9 9 9 10 9 9 9 8 8 9 8 9 9 8 8 8 7 7
21 20 19 19 19 19 19 20 21 22 21 21 21 19 17 18 17 19 19 19 20 20 19 18 17 16 16 16 14 13 13 13 13 13 12 12 11 11 12 12 12 12 11 11 9 9 10 10 10 10 10 9 9 9 9 9 9 9 9 9 9 8 8
20 20 20 20 20 20 20 20 20 20 20 20 19 17 17 17 19 20 18 19 20 20 20 19 19 17 16 15 15 15 16 15 14 15 13 12 11 11 12 11 11 11 11 9 10 9 9 10 11 11 11 10 10 10 10 10 10 9 8 9 9 9 9
22 19 20 21 21 20 19 18 18 19 17 15 15 16 17 17 16 16 18 18 18 18 18 20 19 18 17 16 16 17 17 17 14 14 13 13 13 12 12 11 10 10 9 10 11 10 11 11 10 10 11 11 11 11 11 11 11 10 9 10 10 10 8
21 22 22 21 19 17 18 18 19 19 19 18 19 19 19 18 17 18 19 18 17 18 20 20 20 18 16 15 15 17 16 14 14 13 14 14 13 13 13 11 11 9 11 12 11 10 11 11 11 11 11 11 11 11 11 12 11 11 11 11 12 12 11
19 19 20 20 18 17 17 18 17 16 17 17 17 17 19 18 18 18 18 18 17 19 19 18 16 16 16 16 16 17 16 15 14 15 15 15 14 15 14 13 11 10 11 12 11 11 11 11 12 11 11 12 12 12 12 12 12 12 12 13 13 12 12
18 19 19 19 20 18 17 16 16 17 18 18 18 18 17 18 18 17 17 16 17 18 18 17 15 15 16 17 18 17 17 17 16 16 17 17 14 16 15 14 12 11 12 11 11 12 11 11 11 11 12 12 14 14 13 14 13 13 13 12 12 13 12
19 19 19 19 18 16 17 17 17 17 17 16 18 18 18 18 17 16 16 17 16 16 16 17 16 17 16 16 17 17 18 18 17 17 17 17 16 16 15 14 14 13 12 13 13 12 12 12 11 12 13 14 14 14 14 13 13 14 14 14 13 12 12
18 18 18 20 18 17 16 14 17 18 18 18 18 17 17 17 17 17 16 17 17 16 16 17 17 17 17 17 17 16 17 17 17 17 17 16 16 14 14 15 15 15 14 13 14 14 13 13 14 13 13 14 14 14 14 14 13 13 13 13 13 13 13
20 18 16 15 15 17 18 18 18 17 17 18 17 16 16 16 17 17 17 18 17 16 16 14 16 17 17 17 16 17 18 17 16 16 16 14 14 14 15 15 14 14 14 13 15 15 15 14 15 14 13 13 13 14 13 13 12 13 13 13 13 13 13
21 21 19 19 19 19 19 18 17 17 17 17 16 17 17 16 16 16 16 16 16 16 17 16 16 16 17 17 18 17 16 15 14 14 14 14 14 15 15 15 14 14 14 13 14 13 14 14 14 13 13 13 13 14 13 12 12 12 12 13 14 13 14
22 22 21 21 20 20 19 20 18 17 17 15 16 16 16 16 16 17 17 17 17 17 17 16 17 17 17 17 16 15 14 14 13 13 14 14 15 15 15 14 14 14 14 14 15 14 14 13 13 14 14 14 15 14 12 12 11 14 20 18 14 14 13
20 20 20 20 21 22 20 17 16 16 16 17 17 18 17 17 17 17 17 17 17 17 16 15 15 16 16 16 15 14 14 13 13 13 14 14 14 14 14 15 13 13 14 14 14 15 14 13 15 15 15 16 15 15 13 12 12 19 19 20 21 15 12
18 19 18 17 17 16 14 15 14 15 17 18 18 18 17 16 16 16 17 16 15 15 14 14 15 16 15 15 14 14 14 14 14 14 14 14 15 14 14 13 14 14 14 14 14 14 13 15 16 16 15 14 15 15 14 14 16 19 19 20 20 18 14
15 17 17 16 14 14 16 17 16 17 17 17 17 16 17 16 15 16 15 15 14 13 14 15 15 15 15 15 14 15 14 14 14 15 15 15 14 14 13 13 14 15 15 16 15 12 14 16 16 15 15 14 15 16 15 14 17 18 19 20 20 21 18
7 6 8 12 13 15 14 12 11 12 14 15 16 17 16 14 16 15 14 14 12 14 14 14 14 14 15 15 15 15 15 15 15 15 15 14 14 14 14 15 16 16 14 13 12 13 15 15 16 15 15 15 15 15 14 15 16 19 20 20 21 22 19
11 9 7 5 6 8 8 9 9 9 8 9 10 9 9 10 11 9 9 10 12 12 13 14 14 14 14 15 15 15 15 15 15 15 15 15 14 15 15 16 15 15 14 13 14 14 15 15 16 15 15 15 15 14 14 14 18 19 21 20 21 22 19
11 12 11 6 8 5 5 6 9 10 9 7 7 7 9 10 9 10 12 11 12 13 13 13 14 13 13 15 15 15 15 15 15 15 14 14 15 15 15 15 15 15 14 13 12 12 12 12 13 15 15 15 15 14 15 14 17 18 20 22 21 21 14
12 11 10 10 11 8 6 5 5 4 6 7 7 8 9 8 8 9 9 10 11 12 12 13 13 14 13 14 15 15 15 15 15 15 15 15 15 15 15 15 15 14 12 13 14 14 14 14 14 14 15 15 14 15 15 13 15 18 20 21 21 14 11
15 14 14 12 12 12 10 10 11 10 9 7 5 2 1 5 7 8 9 11 11 12 12 13 14 13 12 13 14 15 15 15 16 16 15 15 16 16 15 15 14 14 13 15 14 15 15 13 13 13 13 14 15 15 15 13 12 17 18 19 19 18 14
14 14 14 13 12 13 12 11 11 11 11 11 10 6 6 1 6 6 7 8 10 11 12 13 13 13 13 12 12 13 14 15 16 16 16 16 16 15 15 15 15 14 13 14 14 14 13 12 12 13 12 13 14 16 15 12 10 15 17 19 20 18 12
15 15 14 13 12 10 8 7 12 14 12 10 6 4 6 7 5 3 4 6 5 7 10 13 13 12 10 10 11 12 13 14 16 16 16 17 15 14 15 13 13 13 13 12 12 12 12 12 12 14 13 12 12 11 12 11 9 11 19 20 21 23 15
12 13 14 14 13 12 11 10 9 10 9 6 6 6 5 6 6 5 4 1 4 6 8 6 4 5 8 9 11 12 13 12 14 16 16 16 15 15 14 12 12 12 12 12 11 11 11 12 12 12 12 11 11 11 10 10 10 11 20 21 23 24 21
14 14 13 13 15 13 11 11 10 10 10 8 8 7 6 5 6 5 5 4 2 3 5 4 5 7 6 8 10 11 12 13 12 13 13 13 13 12 12 11 12 11 12 11 11 13 13 12 11 11 10 10 9 9 9 10 16 9 17 22 23 23 25
14 13 13 14 15 14 12 11 12 12 11 10 10 9 8 7 6 5 4 6 6 7 5 4 4 6 8 8 8 9 11 12 13 12 10 11 12 13 13 11 11 11 11 11 11 12 12 12 10 10 10 8 7 7 8 8 10 16 14 19 22 23 24
12 12 13 12 12 11 12 11 10 10 10 10 10 10 10 10 8 7 7 8 8 8 6 4 3 5 6 8 9 9 9 10 11 11 11 12 12 12 12 11 11 11 10 11 11 10 11 10 9 9 9 9 7 6 5 6 7 12 17 16 21 21 24
11 10 10 11 11 10 10 10 10 9 10 9 9 9 9 9 9 9 10 9 8 8 7 7 2 4 6 7 8 9 9 8 9 11 10 10 11 11 11 10 10 10 9 9 10 10 10 9 8 9 9 8 8 7 6 6 7 7 12 17 20 22 22
10 10 9 7 9 10 8 9 10 11 10 10 9 8 7 7 8 9 8 8 8 8 8 7 3 4 6 6 6 7 7 8 8 9 10 10 10 11 11 12 12 11 9 9 10 10 9 8 8 8 8 8 7 6 7 6 6 4 3 5 8 9 12
10 9 8 7 5 6 7 7 8 9 8 8 8 7 7 7 7 6 6 8 8 9 8 7 4 3 4 5 6 6 7 9 8 8 7 7 7 8 9 9 9 9 9 9 10 8 8 7 8 7 7 8 7 6 6 7 3 3 2 3 5 6 7
12 12 12 10 5 7 7 8 7 7 6 5 5 5 6 6 6 7 8 8 8 9 9 7 6 3 4 5 5 7 7 8 9 10 7 6 5 5 6 6 7 8 9 9 9 8 7 7 7 8 8 8 7 7 6 5 3 4 5 5 5 4 4
12 11 10 11 8 6 7 6 6 5 4 5 5 5 5 6 6 6 7 8 8 8 8 7 6 5 3 3 4 5 5 7 7 7 8 7 8 8 6 4 3 1 1 1 1 6 9 9 8 9 8 8 8 8 6 3 6 5 2 3 3 6 7
10 11 11 9 7 7 5 5 4 4 4 4 4 5 5 5 6 6 6 6 7 7 7 7 5 3 4 2 1 4 6 6 7 7 8 9 7 8 8 11 12 8 3 1 6 8 8 5 8 8 6 6 2 1 7 9 6 8 9 7 7 8 9
10 11 12 12 10 9 5 3 3 3 4 4 4 4 4 4 5 5 6 6 6 6 7 6 5 3 4 3 1 4 6 7 7 7 7 8 8 8 9 7 10 16 15 9 7 8 6 5 8 12 11 11 6 6 12 15 15 12 10 9 9 10 10
10 9 9 9 8 8 5 1 3 3 2 2 2 2 2 3 4 4 5 5 6 6 6 6 4 4 4 4 1 4 6 7 8 8 8 7 6 8 8 8 9 9 15 15 14 15 15 13 10 12 13 15 17 13 5 8 10 12 11 11 12 11 11
Wind_Direction
185 184 186 186 184 186 189 190 188 183 183 184 181 180 179 179 180 178 179 182 185 184 185 184 186 187 190 193 195 194 196 195 195 197 197 196 195 192 192 191 191 193 191 195 199 198 200 191 193 198 195 196 196 193 190 188 191 193 195 195 193 188 194
188 188 187 185 188 189 188 188 188 185 183 184 183 181 181 181 180 181 183 183 186 185 184 184 186 189 191 194 194 194 194 196 196 198 200 200 198 197 195 191 191 193 193 197 196 198 188 195 194 196 197 197 200 194 191 190 190 189 192 195 192 193 190
190 190 186 187 187 187 186 187 188 188 185 185 184 181 183 182 182 183 182 184 187 187 184 187 187 189 192 192 192 195 196 195 197 198 199 200 199 197 195 194 196 192 195 193 193 194 192 193 198 198 194 197 199 195 194 193 192 191 191 190 193 193 192
189 187 187 187 188 186 185 186 187 189 188 186 185 184 184 184 183 183 182 183 185 186 189 191 189 190 191 191 193 195 197 198 199 201 202 201 200 196 191 197 198 193 186 195 194 192 193 192 197 199 196 196 198 196 194 196 196 194 194 188 194 195 196
191 187 184 185 186 183 187 189 189 189 189 189 188 186 184 181 179 181 184 185 184 187 190 190 190 190 190 190 193 195 197 197 200 203 205 206 202 196 196 197 197 197 199 192 188 190 191 191 196 197 200 198 199 194 195 197 198 196 196 194 197 195 197
191 185 184 185 184 186 188 189 189 189 188 187 188 185 181 178 180 183 185 184 188 190 188 188 190 189 191 192 192 195 195 199 202 202 204 204 201 200 201 200 197 199 198 199 190 192 189 191 194 197 198 199 199 199 198 198 201 196 197 195 202 196 195
189 184 183 184 186 189 189 186 188 190 189 190 186 182 178 178 183 185 184 187 188 186 187 188 191 189 193 189 194 193 195 198 198 201 202 204 205 208 209 204 200 199 201 194 199 189 189 193 196 196 198 198 200 201 200 201 202 199 196 196 203 201 199
183 180 185 187 188 188 183 184 185 187 188 186 181 181 182 184 184 183 186 189 188 188 188 189 190 192 192 192 194 195 198 198 198 200 200 202 204 208 210 208 204 201 196 198 203 194 196 195 195 197 196 199 201 202 203 203 204 201 196 200 203 205 201
181 177 181 188 188 181 182 183 182 183 181 181 184 184 185 184 185 186 189 187 188 189 192 191 192 192 190 191 193 198 198 197 198 197 200 202 205 209 209 209 207 200 199 201 201 200 201 200 198 195 196 201 202 203 205 205 204 202 201 204 204 205 206
178 180 183 184 180 181 184 182 181 180 181 182 183 185 187 188 189 190 188 186 187 192 192 192 192 191 190 192 195 195 195 196 197 198 200 203 205 208 209 207 207 201 203 203 201 201 205 203 202 199 198 202 204 204 207 206 206 203 204 205 205 207 207
176 179 180 182 181 184 180 178 178 182 183 183 184 186 187 189 192 191 188 187 189 191 189 190 190 192 194 194 195 195 195 198 197 199 200 203 204 208 207 207 206 204 206 204 204 204 203 204 201 202 203 206 207 207 208 208 205 205 207 208 207 208 208
176 179 179 178 181 176 176 180 184 183 183 184 185 185 187 189 191 190 191 192 190 188 187 189 188 192 193 196 197 197 198 199 198 200 201 202 204 206 206 206 206 205 206 205 207 206 205 203 202 202 206 209 210 208 210 208 206 206 207 207 207 208 210
180 180 176 175 176 176 178 181 185 187 184 184 185 185 185 187 188 190 191 192 190 189 189 189 189 190 192 195 198 199 201 200 200 200 201 202 204 204 205 206 207 205 206 204 208 207 206 205 205 207 206 210 210 211 210 209 207 208 208 208 207 208 209
177 179 176 174 173 172 179 184 188 186 186 184 184 182 184 187 188 189 190 191 190 187 188 189 190 191 192 193 197 201 203 202 200 200 201 202 202 204 206 206 207 206 206 204 208 210 209 207 206 209 209 210 210 214 212 210 209 209 209 209 208 207 209
178 179 177 176 177 178 182 185 186 186 186 185 180 179 180 183 187 190 192 191 190 189 190 186 187 191 193 194 198 201 200 200 201 201 201 200 201 205 207 208 207 206 206 206 209 211 212 211 209 209 212 214 214 215 213 210 210 209 208 207 209 208 210
178 181 180 178 179 181 186 187 181 181 182 181 182 182 180 183 186 188 190 191 190 192 190 184 189 191 194 198 199 198 197 198 199 199 199 200 203 205 206 207 207 206 207 209 209 211 211 211 211 211 211 213 216 217 214 213 213 211 207 204 206 208 211
174 182 184 183 182 187 189 180 177 176 178 183 185 185 184 186 188 189 190 191 190 191 189 185 188 192 194 198 197 195 195 195 199 198 199 202 203 204 205 207 206 207 210 211 210 211 210 211 213 213 212 212 215 216 216 215 216 211 205 206 207 206 209
170 176 183 185 188 185 175 178 176 177 183 186 188 187 187 188 189 189 193 190 190 187 182 185 189 192 195 197 194 194 193 196 196 198 201 200 203 203 204 204 206 209 210 210 211 210 209 213 215 215 214 214 216 218 217 219 216 208 205 205 206 206 209
165 176 179 175 177 176 179 182 180 182 186 185 186 186 190 186 185 193 193 190 188 181 186 187 189 190 194 195 195 194 194 195 196 198 200 201 202 201 200 202 207 210 210 211 210 207 210 215 215 217 215 214 216 220 218 221 215 207 203 203 204 206 209
127 135 151 163 167 172 181 181 179 181 181 183 185 186 184 181 187 192 191 188 181 186 189 188 189 189 192 194 195 194 194 195 197 198 200 199 199 198 198 200 207 209 211 212 208 211 215 216 217 219 217 215 217 220 221 222 215 203 203 202 203 205 205
78 88 83 119 151 168 167 167 163 160 166 175 180 180 178 187 192 185 184 183 187 190 190 192 192 191 191 193 194 194 194 194 196 198 198 198 198 198 200 201 205 206 207 208 209 211 214 214 216 219 219 218 218 221 223 224 213 201 201 202 203 205 201
73 75 83 88 99 96 122 147 156 161 171 164 158 175 184 186 180 178 189 186 188 191 193 194 196 197 191 194 194 194 193 192 194 196 197 197 198 200 202 202 203 205 204 206 211 215 217 219 219 221 222 220 218 221 227 227 209 199 200 202 204 200 201
69 74 79 70 75 77 91 100 101 130 149 153 166 168 187 183 173 180 181 186 193 193 196 197 201 201 195 194 194 194 192 191 192 194 196 197 198 201 201 201 203 206 201 206 209 211 212 215 216 220 222 221 218 222 228 228 210 198 200 202 200 189 207
61 62 61 65 65 66 67 74 76 66 69 67 49 8 202 171 174 175 180 191 195 194 199 201 205 204 198 197 194 192 190 191 191 194 195 196 199 200 201 201 202 203 199 204 207 211 214 214 218 221 222 221 221 221 226 227 210 195 199 198 193 191 203
59 59 57 55 57 61 60 66 80 80 71 65 52 21 20 136 163 158 181 190 191 193 200 206 207 204 203 198 191 191 190 190 192 194 195 197 200 199 199 199 200 202 200 205 207 212 212 212 216 219 220 221 223 223 223 226 209 188 192 194 192 195 209
53 51 49 46 47 59 64 63 63 59 60 60 54 38 43 44 70 125 183 194 176 188 203 207 207 204 199 188 188 190 191 191 192 194 195 199 199 198 200 199 200 201 201 204 207 210 212 213 215 218 220 219 221 221 218 219 211 184 189 190 194 195 201
61 58 52 45 39 35 45 48 59 70 68 74 59 46 43 51 58 52 39 109 186 217 223 220 196 192 192 187 185 188 191 192 193 194 197 198 197 197 198 196 198 198 200 202 204 209 213 214 216 219 223 219 218 219 213 207 206 189 187 193 194 197 198
49 48 49 47 43 39 37 41 46 52 46 37 43 41 38 51 57 38 19 29 14 262 259 248 198 187 186 188 190 189 188 190 194 195 196 197 193 194 199 197 196 197 198 200 200 205 211 212 215 218 222 221 216 215 212 199 197 188 194 192 196 196 200
47 48 44 39 37 34 42 43 37 36 36 33 37 37 34 41 45 30 35 29 343 322 309 270 218 190 186 189 191 191 190 190 187 188 190 193 192 193 196 192 194 195 195 197 200 204 208 211 212 216 222 222 216 211 205 198 200 190 190 198 194 197 200
38 45 48 47 49 41 44 47 42 39 32 29 31 33 30 38 39 25 18 360 330 325 324 306 224 200 193 193 192 191 192 189 187 186 188 187 186 191 192 192 194 193 194 195 197 200 205 208 208 213 219 221 220 211 206 203 199 201 192 191 198 198 201
34 35 43 49 45 43 48 52 46 40 34 27 27 31 34 34 30 19 10 340 333 333 333 316 255 189 205 209 199 190 189 184 183 184 185 184 180 184 189 192 189 194 195 192 198 200 203 203 199 207 214 217 217 211 205 202 203 208 202 195 194 199 202
28 33 35 46 52 48 47 45 45 39 29 20 16 19 25 25 31 20 347 330 336 335 333 330 291 205 215 211 200 195 178 177 183 182 181 176 180 185 187 186 187 192 189 190 196 198 198 197 195 205 207 213 213 206 205 205 210 194 115 174 192 210 223
18 25 33 38 63 75 58 54 45 39 33 23 3 7 10 13 17 10 349 348 340 337 334 332 329 257 216 205 197 180 175 171 171 167 165 170 174 184 186 187 186 187 185 191 193 193 195 193 192 200 201 208 207 198 198 208 164 109 132 134 165 191 199
8 10 13 21 41 69 65 60 52 38 27 14 353 356 3 5 7 357 353 349 344 339 335 328 333 284 219 207 186 178 175 170 158 149 147 141 150 161 170 175 184 186 186 189 187 185 194 190 194 196 198 205 196 196 198 175 129 156 165 166 155 148 155
1 3 8 17 9 48 67 64 52 35 17 352 345 356 1 356 350 352 351 345 340 342 337 328 332 337 296 223 178 174 162 151 147 138 128 105 78 62 38 14 5 324 163 38 270 201 186 195 199 197 200 196 189 188 188 158 186 202 113 107 136 157 157
355 359 359 4 13 14 37 53 66 45 15 336 342 345 355 344 346 342 340 341 340 342 343 332 336 6 350 339 191 152 141 131 125 126 125 122 116 105 76 63 68 45 8 319 335 325 283 215 198 190 157 124 57 278 193 198 177 118 116 120 111 98 102
357 357 353 354 353 354 349 11 46 46 18 341 330 328 326 343 337 341 336 337 340 345 338 336 328 353 340 358 117 154 137 122 122 123 125 130 127 117 113 98 51 44 41 37 28 26 358 219 146 139 156 148 125 52 62 103 117 125 127 121 111 111 112
351 355 351 347 344 326 318 3 45 63 35 334 334 326 352 342 334 330 327 339 339 340 340 333 335 341 331 328 330 119 123 132 135 134 129 122 126 128 128 116 102 56 39 42 48 53 54 45 72 103 108 122 127 124 44 68 104 125 126 121 114 109 107